Weather History for Siemreap, Cambodia

Change the Weather History Date:

Wednesday, May 14, 2014

  Actual Average Record
Temperature  
Mean Temperature 86 °F -  
Max Temperature 96 °F - - ()
Min Temperature 77 °F - - ()
Cooling Degree Days 22    
Growing Degree Days 36 (Base 50)    
Moisture  
Dew Point 78 °F    
Average Humidity 80    
Maximum Humidity 94    
Minimum Humidity 49    
Precipitation  
Precipitation 0.00 in - - ()
Sea Level Pressure  
Sea Level Pressure 29.68 in    
Wind  
Wind Speed 4 mph ()    
Max Wind Speed 26 mph    
Max Gust Speed -    
Visibility 5.9 miles    
Events Rain , Thunderstorm    
T = Trace of Precipitation, MM = Missing Value Source: Averaged Metar Reports

Daily Weather History Graph

Daily Weather History Graph

Search for Another Location

Airport:

Trip Planner

Search our weather history database for the weather conditions in past years. The results will help you decide how hot, cold, wet, or windy it might be!

Date:

Astronomy

May. 14, 2014 Rise Set
Actual Time 5:39 AM ICT 6:22 PM ICT
Civil Twilight 5:16 AM ICT 6:45 PM ICT
Nautical Twilight 4:49 AM ICT 7:12 PM ICT
Astronomical Twilight 4:22 AM ICT 7:39 PM ICT
Moon 6:01 PM ICT (5/14) 5:02 AM ICT (5/14)
Length of Visible Light 13h 29m
Length of Day
12h 43m
Full, 100% of the Moon is Illuminated
May 14
Full
May 15
Full
May 21
Last Quarter
May 29
New
Jun 6
First Quarter

Hourly Weather History & Observations

Time (ICT) Temp. Heat Index Dew Point Humidity Pressure Visibility Wind Dir Wind Speed Gust Speed Precip Events Conditions
12:00 AM 80.6 °F 88.1 °F 78.8 °F 94% 29.74 in 6.2 mi Variable 1.2 mph - N/A   Scattered Clouds
12:30 AM 80.6 °F 88.1 °F 78.8 °F 94% 29.74 in 6.2 mi Variable 2.3 mph - N/A   Scattered Clouds
1:00 AM 80.6 °F 88.1 °F 78.8 °F 94% 29.74 in 6.2 mi Calm Calm - N/A   Scattered Clouds
7:00 AM 82.4 °F 94.0 °F 80.6 °F 94% 29.71 in 6.2 mi SE 3.5 mph - N/A   Scattered Clouds
7:30 AM 84.2 °F 96.1 °F 78.8 °F 84% 29.71 in 6.2 mi SE 3.5 mph - N/A   Scattered Clouds
8:00 AM 86.0 °F 99.3 °F 78.8 °F 79% 29.71 in 6.2 mi SSE 3.5 mph - N/A   Scattered Clouds
8:30 AM 86.0 °F 99.3 °F 78.8 °F 79% 29.74 in 6.2 mi SSE 5.8 mph - N/A   Scattered Clouds
9:00 AM 87.8 °F 102.5 °F 78.8 °F 75% 29.74 in 6.2 mi South 9.2 mph - N/A   Scattered Clouds
9:30 AM 87.8 °F 102.5 °F 78.8 °F 75% 29.74 in 6.2 mi SE 6.9 mph - N/A   Scattered Clouds
10:00 AM 89.6 °F 104.7 °F 78.8 °F 70% 29.74 in 6.2 mi South 4.6 mph - N/A   Scattered Clouds
10:30 AM 89.6 °F 104.7 °F 78.8 °F 70% 29.74 in 6.2 mi SW 4.6 mph - N/A   Scattered Clouds
11:00 AM 91.4 °F 105.1 °F 77.0 °F 63% 29.71 in 6.2 mi WSW 10.4 mph - N/A   Scattered Clouds
11:30 AM 91.4 °F 105.1 °F 77.0 °F 63% 29.71 in 6.2 mi WNW 5.8 mph - N/A   Mostly Cloudy
12:00 PM 91.4 °F 105.1 °F 77.0 °F 63% 29.71 in 6.2 mi South 2.3 mph - N/A   Mostly Cloudy
12:30 PM 93.2 °F 107.2 °F 77.0 °F 59% 29.68 in 6.2 mi SW 9.2 mph - N/A   Scattered Clouds
1:00 PM 93.2 °F 105.0 °F 75.2 °F 56% 29.68 in 6.2 mi SW 10.4 mph - N/A   Mostly Cloudy
1:30 PM 95.0 °F 107.4 °F 75.2 °F 53% 29.65 in 6.2 mi NE 3.5 mph - N/A   Mostly Cloudy
2:00 PM 96.8 °F 109.6 °F 75.2 °F 50% 29.65 in 6.2 mi NW 3.5 mph - N/A   Scattered Clouds
2:30 PM 95.0 °F 104.5 °F 73.4 °F 49% 29.62 in 6.2 mi NE 2.3 mph - N/A   Scattered Clouds
3:00 PM 95.0 °F 104.5 °F 73.4 °F 49% 29.59 in 5.0 mi NW 2.3 mph - N/A Rain Rain
3:30 PM 80.6 °F 87.1 °F 77.0 °F 89% 29.65 in 0.8 mi West 26.5 mph - N/A Rain , Thunderstorm Heavy Thunderstorms and Rain
3:38 PM 77.0 °F - 75.2 °F 94% 29.62 in 4.3 mi ESE 13.8 mph - N/A Rain , Thunderstorm Light Thunderstorms and Rain
4:00 PM 80.6 °F 86.2 °F 75.2 °F 84% 29.62 in 5.0 mi East 6.9 mph - N/A Rain Light Rain
4:30 PM 80.6 °F 87.1 °F 77.0 °F 89% 29.62 in 6.2 mi WSW 5.8 mph - N/A   Mostly Cloudy
5:00 PM 82.4 °F 92.4 °F 78.8 °F 89% 29.59 in 6.2 mi NNW 3.5 mph - N/A   Scattered Clouds
5:30 PM 84.2 °F 96.1 °F 78.8 °F 84% 29.59 in 6.2 mi Variable 1.2 mph - N/A   Scattered Clouds
6:00 PM 84.2 °F 96.1 °F 78.8 °F 84% 29.59 in 6.2 mi ENE 3.5 mph - N/A   Scattered Clouds
6:30 PM 84.2 °F 98.3 °F 80.6 °F 89% 29.62 in 6.2 mi Calm Calm - N/A   Scattered Clouds
7:00 PM 84.2 °F 98.3 °F 80.6 °F 89% 29.62 in 6.2 mi Calm Calm - N/A   Scattered Clouds
7:30 PM 82.4 °F 94.0 °F 80.6 °F 94% 29.65 in 6.2 mi Calm Calm - N/A   Scattered Clouds
8:00 PM 82.4 °F 94.0 °F 80.6 °F 94% 29.65 in 6.2 mi Calm Calm - N/A   Partly Cloudy
8:30 PM 82.4 °F 94.0 °F 80.6 °F 94% 29.65 in 6.2 mi Calm Calm - N/A   Scattered Clouds
9:00 PM 82.4 °F 94.0 °F 80.6 °F 94% 29.68 in 6.2 mi Calm Calm - N/A   Scattered Clouds
10:00 PM 82.4 °F 94.0 °F 80.6 °F 94% 29.68 in 6.2 mi Calm Calm - N/A   Partly Cloudy
10:30 PM 82.4 °F 94.0 °F 80.6 °F 94% 29.71 in 6.2 mi Calm Calm - N/A   Partly Cloudy
11:00 PM 82.4 °F 94.0 °F 80.6 °F 94% 29.71 in 6.2 mi Calm Calm - N/A   Partly Cloudy
11:30 PM 82.4 °F 94.0 °F 80.6 °F 94% 29.71 in 6.2 mi Calm Calm - N/A   Partly Cloudy